[Iaude] MPEC R144: 2016 RP33 [a=3.32,e=0.63,i=23.0,H=19.3]

mpec at mpc.eps.harvard.edu mpec at mpc.eps.harvard.edu
Tue Sep 13 22:11:16 EDT 2016


M.P.E.C. 2016-R144                               Issued 2016 Sept. 14, 02:09 UT
 
     The Minor Planet Electronic Circulars contain information on unusual
         minor planets and routine data on comets.  They are published
    on behalf of Division F of the International Astronomical Union by the
          Minor Planet Center, Smithsonian Astrophysical Observatory,
                          Cambridge, MA 02138, U.S.A.

             Prepared using the Tamkin Foundation Computer Network

                              MPC at CFA.HARVARD.EDU
            URL http://www.minorplanetcenter.net/    ISSN 1523-6714


                                   2016 RP33
 
Observations:
     K16R33P* C2016 09 06.45029 00 15 26.245-29 31 28.29         17.8 wLER144F51
     K16R33P  C2016 09 06.49457 00 15 19.897-29 27 12.38         17.7 wLER144F51
     K16R33P  C2016 09 06.50550 00 15 18.335-29 26 08.60         17.6 wLER144F51
     K16R33P  C2016 09 12.49743 00 02 10.59 -18 47 58.5          16.5 wLER144T05
     K16R33P  C2016 09 12.52702 00 02 06.10 -18 44 32.8          17.1 wLER144T05
     K16R33P  C2016 09 12.52752 00 02 06.04 -18 44 29.5          17.1 wLER144T05
     K16R33P  C2016 09 12.54339 00 02 03.68 -18 42 39.3          17.1 wLER144T05
     K16R33P  C2016 09 12.98288 00 01 06.11 -17 52 06.7          17.1 RqER144K62
     K16R33P  C2016 09 12.98369 00 01 06.01 -17 52 01.3          17.4 RqER144K62
     K16R33P  C2016 09 12.98450 00 01 05.91 -17 51 55.3          16.8 RqER144K62
     K16R33P  C2016 09 12.98531 00 01 05.75 -17 51 49.8          17.1 RqER144K62
     K16R33P  C2016 09 12.98613 00 01 05.64 -17 51 43.8          16.7 RqER144K62
     K16R33P KC2016 09 13.05067 00 00 56.37 -17 44 12.5                qER144204
     K16R33P KC2016 09 13.05759 00 00 55.77 -17 43 26.6                qER144J95
     K16R33P KC2016 09 13.05892 00 00 55.57 -17 43 17.1                qER144J95
     K16R33P KC2016 09 13.06013 00 00 55.40 -17 43 08.7          17.0 RqER144J95
     K16R33P KC2016 09 13.07139 00 00 53.37 -17 41 47.8                qER144204
     K16R33P KC2016 09 13.07403 00 00 52.99 -17 41 29.1                qER144204
     K16R33P KC2016 09 13.07668 00 00 52.61 -17 41 10.6                qER144204
     K16R33P KC2016 09 13.07932 00 00 52.21 -17 40 52.0          17.0 RqER144204
     K16R33P KC2016 09 13.23227400 00 33.12 -17 23 03.5          17.2 VuER144H21
     K16R33P KC2016 09 13.23578900 00 32.60 -17 22 39.0          17.2 VuER144H21
     K16R33P KC2016 09 13.24009300 00 31.97 -17 22 08.9          17.4 VuER144H21
     K16R33P KC2016 09 13.24439500 00 31.33 -17 21 38.9          17.3 VuER144H21
     K16R33P KC2016 09 13.24869600 00 30.71 -17 21 09.0          17.1 VuER144H21
     K16R33P KC2016 09 13.25400300 00 29.93 -17 20 31.9          17.2 VuER144H21
     K16R33P KC2016 09 13.39303 00 00 12.74 -17 03 23.5          16.9 RcER144R57
     K16R33P KC2016 09 13.39852 00 00 11.98 -17 02 45.4          16.8 RcER144R57
     K16R33P KC2016 09 13.40218 00 00 11.49 -17 02 20.1          16.9 RcER144R57
     K16R33P KC2016 09 13.96163 23 58 55.32 -15 57 38.7          16.9 RtER144104
     K16R33P KC2016 09 13.96531 23 58 54.77 -15 57 12.8          16.8 RtER144104
     K16R33P KC2016 09 13.96722 23 58 54.80 -15 57 01.5                qER144J95
     K16R33P KC2016 09 13.96900 23 58 54.24 -15 56 46.7          16.8 RtER144104
     K16R33P KC2016 09 13.96900 23 58 54.55 -15 56 49.1                qER144J95
     K16R33P KC2016 09 13.97087 23 58 54.31 -15 56 35.2          16.8 RqER144J95
 
Observer details:
104 San Marcello Pistoiese.  Observers P. Bacci, M. Maestripieri, M. Garozzo.
    Measurers P. Bacci, L. Tesi, G. Fagioli.  0.60-m f/4 reflector + CCD.
204 Schiaparelli Observatory.  Observers L. Buzzi, M. Lucchetta.  0.60-m
    f/4.64 reflector + CCD.
F51 Pan-STARRS 1, Haleakala.  Observers B. Gibson, T. Goggia, S. Kahale,
    A. Schultz, M. Willman.  Measurers K. Chambers, S. Chastel, L. Denneau,
    H. Flewelling, M. Huber, E. Lilly, E. Magnier, R. Wainscoat, C. Waters,
    R. Weryk.  1.8-m Ritchey-Chretien + CCD.
H21 Astronomical Research Observatory, Westfield.  Observer R. Holmes.
    Measurers S. Foglia, L. Buzzi, T. Linder, R. Holmes.  0.61-m f/4.5
    astrograph + CCD.
J95 Great Shefford.  Observer P. Birtwhistle.  0.40-m f/6.0 Schmidt-Cassegrain
    + CCD.
K62 Teplice Observatory.  Observer Z. Moravec.  0.43-m f/4.6 reflector + CCD.
R57 Aorangi Iti Observatory, Lake Tekapo.  Observers A. C. Gilmore,
    P. M. Kilmartin.  Measurer P. M. Kilmartin.  0.35-m f/11
    Schmidt-Cassegrain + CCD.
T05 ATLAS-HKO, Haleakala.  Observers L. Denneau, A. Heinze, H. Weiland,
    B. Stalder, J. Tonry, A. Sherstyuk.  Measurers L. Denneau, A. Heinze,
    J. Tonry.  0.5-m f/2.0 Schmidt + CCD.
 
Orbital elements:
2016 RP33                                                Earth MOID = 0.2176 AU
Epoch 2016 July 31.0 TT = JDT 2457600.5                 MPC
M 353.16361              (2000.0)            P               Q
n   0.16309552     Peri.  350.53216     +0.97976410     +0.19958103
a   3.3177325      Node   357.77743     -0.14833683     +0.67318500
e   0.6326170      Incl.   23.00569     -0.13438191     +0.71203186
P   6.04           H   19.3           G   0.15           U   7
Residuals in seconds of arc
160906 F51  0.0   0.0     160913 204  0.3-  0.2+    160913 H21  0.0   0.1-
160906 F51  0.0   0.1-    160913 J95  0.2+  0.2-    160913 H21  0.0   0.1-
160906 F51  0.1+  0.2+    160913 J95  0.1+  0.0     160913 R57  0.8-  0.4+
160912 T05  0.6+  0.6-    160913 J95  0.2+  0.0     160913 R57  0.5-  0.2+
160912 T05  0.3-  0.2+    160913 204  0.1-  0.1+    160913 R57  0.1-  0.0
160912 T05  0.1-  0.0     160913 204  0.1-  0.4+    160913 104  0.2+  0.1+
160912 T05  0.1-  0.1+    160913 204  0.0   0.3+    160913 104  0.0   0.1+
160912 K62  0.2-  0.1-    160913 204  0.3-  0.5+    160913 J95  0.2-  0.2-
160912 K62  0.0   0.3-    160913 H21  0.2-  0.0     160913 104  0.2+  0.1+
160912 K62  0.3+  0.0     160913 H21  0.2-  0.0     160913 J95  0.1-  0.3-
160912 K62  0.3-  0.1-    160913 H21  0.2-  0.0     160913 J95  0.3+  0.4+
160912 K62  0.2-  0.2+    160913 H21  0.2-  0.0

Ephemeris:
2016 RP33                a,e,i = 3.32, 0.63, 23                  q = 1.2189
Date    TT    R. A. (2000) Decl.     Delta      r     Elong.  Phase     V
2016 08 15    00 44 31.6 -51 47 33   0.3599  1.2633   127.2    39.7    19.2
...
2016 08 30    00 29 41.8 -39 46 50   0.2691  1.2278   139.9    32.0    18.3
...
2016 09 07    00 14 15.9 -28 37 32   0.2348  1.2198   151.9    22.9    17.7
...
2016 09 13    00 01 03.9 -17 49 36   0.2206  1.2191   163.4    13.6    17.2
2016 09 14    23 58 49.9 -15 52 39   0.2194  1.2195   165.5    12.0    17.2
2016 09 15    23 56 36.3 -13 54 06   0.2186  1.2199   167.5    10.2    17.1
...
2016 09 21    23 43 38.7 -01 55 18   0.2215  1.2253   177.3     2.2    16.7
...
2016 09 29    23 28 41.5 +12 22 08   0.2457  1.2392   163.4    13.3    17.5
...
2016 10 14    23 12 47.0 +29 18 55   0.3367  1.2850   144.0    27.2    18.7

A. U. Tomatic                (C) Copyright 2016 MPC           M.P.E.C. 2016-R144




More information about the Iaude mailing list